Weather History for Andrews, NC

Change the Weather History Date:

Sunday, September 1, 2013

  Actual Average (KTYS) Record (KTYS)
Temperature  
Mean Temperature 76 °F 76 °F  
Max Temperature 83 °F 86 °F 100 °F (1951)
Min Temperature 68 °F 66 °F 50 °F (1946)
Degree Days  
Heating Degree Days 0 0  
Month to date heating degree days 0  
Since 1 July heating degree days 0  
Cooling Degree Days 10 11  
Month to date cooling degree days 11  
Year to date cooling degree days 1292  
Growing Degree Days 26 (Base 50)    
Moisture  
Dew Point 70 °F    
Average Humidity 92    
Maximum Humidity 100    
Minimum Humidity 65    
Precipitation  
Precipitation 1.15 in 0.10 in 1.10 in (1982)
Month to date precipitation 0.10  
Year to date precipitation 33.70  
Snow  
Snow 0.00 in 0.00 in - ()
Month to date snowfall 0.0  
Since 1 July snowfall 0.0  
Since 1 September snowfall 0.0  
Snow Depth -    
Sea Level Pressure  
Sea Level Pressure 29.96 in    
Wind  
Wind Speed 1 mph (WSW)    
Max Wind Speed 10 mph    
Max Gust Speed -    
Visibility 6 miles    
Events Rain    
T = Trace of Precipitation, MM = Missing Value Source: NWS Daily Summary

Daily Weather History Graph

Daily Weather History Graph

Search for Another Location

Airport:

Trip Planner

Search our weather history database for the weather conditions in past years. The results will help you decide how hot, cold, wet, or windy it might be!

Date:

Astronomy

Sep. 01, 2013 Rise Set
Actual Time 7:08 AM EDT 8:01 PM EDT
Civil Twilight 6:42 AM EDT 8:27 PM EDT
Nautical Twilight 6:11 AM EDT 8:58 PM EDT
Astronomical Twilight 5:39 AM EDT 9:29 PM EDT
Moon 3:34 AM EDT (9/1) 5:34 PM EDT (9/1)
Length of Visible Light 13h 45m
Length of Day
12h 53m
Waning Crescent, 14% of the Moon is Illuminated
Sep 1
Waning Crescent
Sep 5
New
Sep 12
First Quarter
Sep 19
Full
Sep 26
Last Quarter

Hourly Weather History & Observations

Time (EDT) Temp. Heat Index Dew Point Humidity Pressure Visibility Wind Dir Wind Speed Gust Speed Precip Events Conditions
12:15 AM 69.1 °F - 68.0 °F 96% 29.99 in 7.0 mi Calm Calm - N/A   Mostly Cloudy
12:35 AM 69.3 °F - 68.7 °F 98% 29.99 in 5.0 mi Calm Calm - N/A   Overcast
12:55 AM 69.3 °F - 68.4 °F 97% 29.99 in 5.0 mi North 3.5 mph - N/A   Mostly Cloudy
1:15 AM 68.7 °F - 68.2 °F 98% 29.99 in 4.0 mi Calm Calm - N/A   Mostly Cloudy
1:35 AM 68.9 °F - 68.9 °F 100% 29.98 in 4.0 mi Calm Calm - N/A   Overcast
1:55 AM 69.1 °F - 68.5 °F 98% 29.97 in 5.0 mi Calm Calm - N/A   Overcast
2:15 AM 68.9 °F - 68.2 °F 98% 29.97 in 5.0 mi Calm Calm - N/A   Mostly Cloudy
2:35 AM 68.4 °F - 68.2 °F 99% 29.96 in 3.0 mi Calm Calm - N/A   Mostly Cloudy
2:55 AM 69.3 °F - 68.7 °F 98% 29.96 in 5.0 mi Calm Calm - N/A   Overcast
3:15 AM 69.1 °F - 68.9 °F 99% 29.96 in 4.0 mi Calm Calm - N/A   Overcast
3:35 AM 69.1 °F - 68.5 °F 98% 29.96 in 4.0 mi Calm Calm - N/A   Overcast
3:55 AM 68.9 °F - 68.7 °F 99% 29.97 in 4.0 mi Calm Calm - N/A   Overcast
4:15 AM 68.9 °F - 68.5 °F 99% 29.97 in 4.0 mi Calm Calm - N/A   Overcast
4:35 AM 69.1 °F - 68.9 °F 99% 29.96 in 4.0 mi Calm Calm - N/A   Overcast
4:55 AM 69.1 °F - 68.9 °F 99% 29.97 in 2.5 mi West 4.6 mph - N/A Rain Light Rain
5:15 AM 69.1 °F - 68.9 °F 99% 29.97 in 3.0 mi Calm Calm - N/A Rain Light Rain
5:35 AM 69.4 °F - 69.1 °F 99% 29.96 in 4.0 mi Calm Calm - 0.01 in Rain Light Rain
5:55 AM 69.3 °F - 68.9 °F 99% 29.96 in 3.0 mi Calm Calm - 0.01 in Rain Light Rain
6:15 AM 69.4 °F - 69.1 °F 99% 29.96 in 4.0 mi Calm Calm - N/A   Overcast
6:35 AM 69.6 °F - 69.1 °F 98% 29.96 in 5.0 mi North 3.5 mph - N/A   Overcast
6:55 AM 69.8 °F - 69.3 °F 98% 29.96 in 4.0 mi Calm Calm - N/A   Overcast
7:15 AM 69.4 °F - 69.3 °F 99% 29.97 in 3.0 mi Calm Calm - N/A   Overcast
7:35 AM 69.6 °F - 69.3 °F 99% 29.98 in 2.5 mi Calm Calm - 0.02 in   Overcast
7:55 AM 69.4 °F - 69.1 °F 99% 29.98 in 3.0 mi Calm Calm - 0.17 in Rain Light Rain
8:15 AM 69.8 °F - 69.3 °F 98% 29.99 in 1.5 mi SSE 3.5 mph - 0.07 in Rain Heavy Rain
8:35 AM 69.8 °F - 69.6 °F 99% 29.99 in 0.5 mi Calm Calm - 0.33 in Rain Heavy Rain
8:55 AM 69.3 °F - 69.1 °F 99% 29.98 in 0.5 mi ENE 4.6 mph - 0.87 in Rain Heavy Rain
9:15 AM 69.3 °F - 68.4 °F 97% 29.99 in 7.0 mi Calm Calm - 0.02 in   Overcast
9:35 AM 69.3 °F - 68.9 °F 99% 30.01 in 4.0 mi Calm Calm - 0.02 in Rain Light Rain
9:55 AM 70.0 °F - 69.4 °F 98% 30.06 in 5.0 mi Calm Calm - 0.03 in Rain Light Rain
10:15 AM 70.5 °F - 69.4 °F 96% 30.06 in 7.0 mi Calm Calm - N/A   Overcast
10:35 AM 71.4 °F - 69.3 °F 93% 30.06 in 10.0 mi Calm Calm - N/A   Overcast
10:55 AM 72.9 °F - 70.0 °F 91% 30.05 in 10.0 mi Calm Calm - N/A   Overcast
11:15 AM 72.9 °F - 70.2 °F 91% 29.97 in 10.0 mi Calm Calm - N/A   Overcast
11:35 AM 72.9 °F - 70.5 °F 92% 29.96 in 10.0 mi West 3.5 mph - N/A   Overcast
11:55 AM 73.0 °F - 70.7 °F 92% 29.95 in 10.0 mi Calm Calm - N/A   Overcast
12:15 PM 72.5 °F - 70.9 °F 95% 30.00 in 5.0 mi WSW 3.5 mph - 0.01 in Rain Light Rain
12:35 PM 73.0 °F - 70.5 °F 92% 29.99 in 10.0 mi Calm Calm - 0.01 in   Overcast
12:55 PM 73.2 °F - 70.5 °F 91% 29.99 in 10.0 mi Calm Calm - 0.01 in   Overcast
1:15 PM 74.8 °F - 70.7 °F 87% 29.97 in 10.0 mi Calm Calm - N/A   Scattered Clouds
1:35 PM 76.5 °F - 71.6 °F 85% 29.97 in 10.0 mi Calm Calm - N/A   Scattered Clouds
1:55 PM 77.9 °F - 71.6 °F 81% 29.96 in 10.0 mi West 4.6 mph - N/A   Mostly Cloudy
2:15 PM 79.0 °F - 72.1 °F 79% 29.96 in 10.0 mi West 5.8 mph - N/A   Mostly Cloudy
2:35 PM 80.4 °F 84.7 °F 72.5 °F 77% 29.95 in 10.0 mi WSW 3.5 mph - N/A   Mostly Cloudy
2:55 PM 80.8 °F 84.9 °F 71.8 °F 74% 29.94 in 10.0 mi West 4.6 mph - N/A   Clear
3:15 PM 82.2 °F 86.6 °F 71.2 °F 69% 29.94 in 10.0 mi WSW 5.8 mph - N/A   Clear
3:35 PM 82.0 °F 86.7 °F 72.0 °F 71% 29.94 in 10.0 mi WSW 4.6 mph - N/A   Mostly Cloudy
3:55 PM 82.9 °F 88.0 °F 71.8 °F 69% 29.93 in 10.0 mi South 5.8 mph - N/A   Mostly Cloudy
4:15 PM 83.3 °F 88.4 °F 71.8 °F 68% 29.91 in 10.0 mi WSW 10.4 mph - N/A   Scattered Clouds
4:35 PM 83.3 °F 87.6 °F 70.5 °F 65% 29.90 in 10.0 mi SW 5.8 mph - N/A   Scattered Clouds
4:55 PM 83.1 °F 87.8 °F 71.1 °F 67% 29.91 in 10.0 mi SW 6.9 mph - N/A   Scattered Clouds
5:15 PM 82.2 °F 86.6 °F 71.2 °F 69% 29.89 in 10.0 mi SW 4.6 mph - N/A   Scattered Clouds
5:35 PM 81.0 °F 84.7 °F 70.9 °F 71% 29.90 in 10.0 mi WSW 5.8 mph - N/A   Mostly Cloudy
5:55 PM 78.3 °F - 71.8 °F 80% 29.92 in 10.0 mi West 5.8 mph - N/A   Mostly Cloudy
6:15 PM 76.8 °F - 72.0 °F 85% 29.93 in 10.0 mi West 9.2 mph - N/A   Mostly Cloudy
6:35 PM 72.9 °F - 70.9 °F 93% 29.92 in 7.0 mi Calm Calm - 0.04 in Rain Light Rain
6:55 PM 72.5 °F - 71.1 °F 95% 29.93 in 4.0 mi Calm Calm - 0.05 in Rain Light Rain
7:15 PM 72.7 °F - 71.6 °F 96% 29.93 in 5.0 mi Calm Calm - 0.01 in Rain Light Rain
7:35 PM 72.0 °F - 71.4 °F 98% 29.93 in 3.0 mi Calm Calm - 0.01 in   Scattered Clouds
7:55 PM 71.6 °F - 71.2 °F 99% 29.93 in 3.0 mi Calm Calm - 0.01 in   Scattered Clouds
8:15 PM 71.1 °F - 70.7 °F 99% 29.93 in 3.0 mi Calm Calm - N/A   Clear
8:35 PM 70.7 °F - 70.3 °F 99% 29.94 in 3.0 mi Calm Calm - N/A   Mostly Cloudy
8:55 PM 70.7 °F - 69.8 °F 97% 29.95 in 7.0 mi Calm Calm - N/A   Overcast
9:15 PM 70.7 °F - 70.3 °F 99% 29.95 in 4.0 mi Calm Calm - N/A   Overcast
9:35 PM 70.7 °F - 69.8 °F 97% 29.96 in 7.0 mi Calm Calm - N/A   Mostly Cloudy
9:55 PM 69.8 °F - 69.1 °F 98% 29.97 in 7.0 mi Calm Calm - N/A   Mostly Cloudy
10:15 PM 69.8 °F - 69.4 °F 99% 29.98 in 3.0 mi Calm Calm - N/A   Mostly Cloudy
10:35 PM 69.6 °F - 69.3 °F 99% 29.98 in 5.0 mi Calm Calm - N/A   Overcast
10:55 PM 69.8 °F - 69.3 °F 98% 29.98 in 7.0 mi Calm Calm - N/A   Overcast
11:15 PM 69.8 °F - 69.3 °F 98% 29.98 in 5.0 mi Calm Calm - N/A   Overcast
11:35 PM 69.8 °F - 68.9 °F 97% 29.98 in 7.0 mi East 3.5 mph - N/A   Overcast
11:55 PM 68.9 °F - 68.4 °F 98% 29.98 in 5.0 mi Calm Calm - N/A   Overcast